Temp
-10 -11 -10 -9 -9 -9 -10 -11 -10 -10 -10 -13 -11 -11 -12 -11 -11 -10 -11 -10 -10 -10 -11 -10 -10 -10 -10 -10 -11 -11 -11 -12 -12 -12 -13 -12 -13 -13 -12 -12 -12 -12 -12 -12
-11 -10 -8 -10 -10 -10 -11 -11 -9 -10 -11 -13 -13 -12 -13 -12 -9 -10 -10 -10 -10 -10 -10 -10 -10 -10 -10 -10 -11 -11 -11 -12 -12 -12 -12 -12 -12 -12 -12 -12 -12 -12 -12 -12
-11 -8 -11 -10 -10 -11 -10 -10 -9 -10 -10 -12 -13 -13 -9 -9 -10 -10 -10 -10 -10 -10 -10 -10 -10 -10 -11 -11 -11 -11 -12 -11 -11 -11 -11 -12 -12 -12 -12 -12 -12 -12 -12 -12
-12 -9 -10 -10 -10 -10 -9 -10 -10 -10 -11 -11 -13 -11 -8 -10 -11 -10 -9 -10 -11 -10 -10 -11 -10 -10 -11 -11 -11 -11 -11 -11 -11 -11 -11 -11 -11 -11 -12 -12 -12 -12 -13 -13
-9 -10 -10 -11 -8 -11 -8 -12 -11 -11 -11 -11 -10 -12 -7 -10 -10 -9 -11 -11 -10 -9 -11 -11 -10 -10 -11 -11 -11 -11 -11 -11 -11 -11 -11 -11 -11 -11 -11 -11 -12 -12 -13 -13
-10 -12 -12 -9 -10 -11 -11 -12 -12 -13 -11 -11 -9 -12 -7 -9 -9 -10 -11 -10 -9 -11 -11 -10 -10 -11 -11 -11 -11 -11 -11 -11 -11 -11 -11 -11 -11 -11 -11 -12 -12 -12 -13 -13
-12 -13 -12 -11 -12 -11 -12 -12 -13 -13 -10 -7 -10 -13 -7 -8 -9 -10 -10 -9 -10 -11 -10 -10 -10 -10 -11 -11 -11 -11 -11 -11 -11 -11 -11 -11 -11 -11 -11 -12 -12 -12 -12 -13
-17 -17 -13 -10 -10 -9 -12 -12 -10 -8 -9 -9 -11 -11 -8 -9 -9 -9 -10 -10 -11 -10 -10 -10 -11 -11 -11 -11 -11 -11 -11 -11 -11 -11 -11 -11 -11 -11 -12 -12 -12 -12 -12 -13
-21 -20 -16 -15 -11 -12 -11 -14 -8 -12 -12 -12 -11 -11 -11 -10 -9 -10 -10 -10 -10 -10 -10 -11 -11 -11 -11 -11 -11 -11 -11 -11 -11 -11 -11 -11 -11 -11 -11 -12 -12 -12 -13 -13
-20 -20 -17 -16 -14 -13 -14 -10 -14 -12 -11 -12 -11 -11 -11 -10 -11 -10 -10 -10 -10 -10 -11 -11 -11 -11 -11 -11 -11 -11 -11 -11 -11 -11 -11 -11 -11 -11 -11 -12 -12 -12 -13 -12
-20 -19 -19 -18 -17 -14 -13 -15 -12 -11 -12 -12 -12 -11 -12 -10 -11 -10 -10 -10 -10 -10 -10 -11 -11 -11 -11 -11 -11 -11 -11 -11 -11 -11 -11 -11 -11 -11 -12 -11 -12 -12 -12 -12
-22 -20 -18 -18 -17 -16 -14 -15 -13 -10 -10 -13 -12 -11 -11 -11 -11 -10 -10 -9 -10 -10 -10 -11 -11 -11 -11 -11 -11 -11 -11 -11 -11 -11 -11 -11 -11 -11 -11 -11 -12 -12 -12 -12
-22 -20 -18 -17 -17 -18 -17 -16 -14 -12 -14 -13 -12 -11 -11 -11 -11 -10 -10 -9 -10 -11 -11 -11 -11 -11 -11 -10 -10 -11 -11 -11 -11 -11 -11 -11 -11 -11 -11 -11 -11 -12 -12 -12
-21 -20 -18 -16 -17 -17 -17 -16 -15 -14 -14 -13 -12 -12 -11 -11 -10 -10 -10 -11 -11 -11 -11 -11 -11 -11 -11 -10 -10 -11 -11 -11 -11 -11 -11 -11 -11 -11 -11 -11 -11 -12 -12 -12
-21 -20 -18 -16 -16 -16 -16 -16 -15 -15 -14 -13 -13 -13 -13 -13 -13 -11 -11 -11 -11 -11 -12 -12 -11 -11 -10 -10 -10 -11 -11 -11 -11 -11 -11 -11 -11 -11 -11 -11 -11 -11 -12 -12
-21 -19 -18 -19 -16 -16 -16 -16 -15 -15 -15 -13 -13 -13 -13 -13 -13 -12 -12 -11 -12 -12 -12 -12 -11 -11 -10 -10 -10 -11 -11 -10 -11 -11 -11 -11 -12 -12 -11 -11 -11 -12 -12 -12
-20 -19 -21 -19 -17 -16 -17 -16 -15 -15 -15 -14 -14 -13 -12 -13 -11 -12 -12 -12 -12 -12 -12 -12 -11 -11 -10 -11 -10 -11 -11 -10 -11 -11 -11 -12 -12 -12 -12 -12 -11 -11 -11 -12
-20 -19 -19 -19 -17 -17 -17 -16 -16 -16 -16 -15 -15 -14 -14 -13 -12 -13 -13 -13 -13 -12 -12 -12 -11 -11 -11 -11 -11 -11 -11 -10 -11 -11 -11 -12 -12 -12 -12 -12 -11 -11 -12 -12
-20 -19 -19 -18 -18 -16 -15 -16 -16 -16 -16 -15 -16 -14 -13 -13 -13 -13 -12 -12 -13 -13 -12 -12 -11 -11 -11 -11 -11 -11 -11 -10 -11 -11 -11 -11 -12 -12 -12 -11 -12 -12 -12 -12
-20 -19 -19 -18 -17 -16 -15 -16 -16 -16 -15 -13 -13 -12 -13 -13 -12 -12 -12 -12 -12 -13 -12 -12 -11 -11 -11 -11 -11 -11 -11 -11 -11 -11 -11 -11 -12 -12 -12 -12 -12 -12 -12 -12
-20 -19 -19 -20 -17 -16 -16 -15 -16 -15 -14 -12 -12 -12 -12 -12 -12 -12 -12 -12 -12 -11 -11 -11 -11 -11 -11 -11 -11 -11 -11 -11 -11 -11 -11 -11 -11 -12 -12 -12 -12 -12 -12 -12
-21 -20 -19 -19 -19 -16 -16 -16 -16 -14 -13 -13 -13 -13 -13 -13 -13 -12 -12 -12 -12 -12 -11 -12 -11 -11 -11 -11 -11 -11 -11 -11 -11 -11 -12 -11 -11 -12 -12 -12 -12 -12 -12 -12
-20 -20 -19 -19 -18 -17 -16 -16 -16 -15 -13 -13 -13 -14 -13 -13 -13 -13 -12 -12 -12 -12 -12 -12 -12 -12 -12 -11 -11 -12 -11 -11 -11 -12 -12 -11 -11 -12 -12 -12 -12 -12 -12 -12
-20 -20 -19 -19 -18 -18 -17 -17 -16 -15 -14 -14 -13 -14 -13 -13 -13 -13 -13 -13 -12 -12 -12 -12 -12 -12 -12 -11 -11 -12 -12 -11 -11 -12 -12 -12 -12 -12 -12 -12 -12 -12 -12 -12
-20 -20 -20 -19 -18 -18 -17 -17 -17 -15 -14 -14 -14 -13 -13 -13 -13 -13 -13 -13 -13 -12 -12 -12 -12 -12 -13 -12 -11 -11 -12 -12 -11 -12 -12 -12 -12 -12 -12 -12 -12 -12 -12 -12
-20 -20 -20 -19 -19 -18 -17 -17 -17 -15 -15 -14 -14 -13 -13 -13 -13 -13 -13 -13 -13 -12 -12 -11 -12 -12 -13 -12 -12 -12 -12 -12 -11 -11 -11 -12 -12 -12 -12 -12 -12 -12 -12 -12
Height
5725 5721 5734 5752 5757 5764 5768 5765 5767 5773 5779 5776 5777 5777 5783 5779 5779 5782 5782 5782 5786 5787 5785 5785 5783 5782 5781 5780 5780 5779 5778 5777 5775 5772 5769 5767 5764 5760 5756 5751 5746 5741 5736 5730
5699 5709 5739 5744 5749 5750 5752 5753 5760 5767 5771 5772 5771 5766 5771 5773 5772 5773 5775 5777 5778 5777 5778 5778 5776 5777 5775 5775 5775 5774 5773 5772 5769 5766 5763 5760 5758 5753 5749 5744 5740 5735 5728 5724
5681 5715 5722 5727 5734 5733 5742 5746 5755 5760 5763 5759 5760 5756 5760 5762 5763 5763 5766 5768 5766 5770 5771 5771 5770 5771 5770 5770 5770 5770 5769 5766 5763 5760 5758 5755 5752 5747 5743 5737 5732 5728 5721 5716
5665 5700 5701 5708 5714 5727 5733 5742 5749 5751 5749 5745 5756 5746 5754 5754 5752 5755 5760 5756 5759 5763 5762 5763 5766 5765 5765 5766 5766 5765 5764 5761 5758 5755 5752 5749 5745 5741 5736 5731 5725 5719 5715 5709
5667 5674 5684 5685 5709 5718 5728 5735 5736 5740 5738 5743 5745 5740 5745 5748 5747 5751 5746 5750 5752 5754 5755 5756 5760 5760 5761 5761 5761 5760 5758 5755 5752 5750 5747 5743 5740 5736 5730 5725 5720 5714 5709 5703
5646 5655 5661 5680 5697 5702 5718 5722 5727 5729 5733 5727 5740 5733 5732 5743 5743 5739 5741 5743 5745 5748 5750 5752 5755 5756 5757 5757 5757 5756 5753 5750 5748 5745 5742 5738 5735 5730 5725 5720 5715 5709 5704 5698
5627 5628 5645 5664 5672 5690 5700 5710 5714 5719 5720 5716 5733 5726 5729 5738 5733 5734 5735 5737 5740 5742 5745 5748 5750 5752 5752 5753 5753 5751 5748 5745 5743 5740 5737 5734 5730 5726 5721 5716 5711 5705 5700 5696
5600 5606 5629 5655 5656 5678 5684 5694 5701 5707 5713 5721 5723 5716 5726 5727 5725 5726 5728 5733 5737 5739 5740 5744 5747 5748 5749 5749 5748 5746 5744 5742 5739 5736 5733 5730 5726 5722 5718 5713 5708 5703 5698 5694
5590 5594 5618 5629 5646 5657 5671 5675 5703 5708 5715 5717 5723 5725 5720 5721 5722 5724 5728 5731 5732 5735 5737 5741 5742 5744 5745 5745 5744 5742 5740 5738 5736 5733 5730 5726 5722 5719 5714 5710 5705 5701 5698 5695
5579 5583 5599 5618 5632 5640 5656 5683 5685 5693 5702 5710 5718 5721 5722 5720 5719 5723 5726 5728 5730 5731 5734 5737 5739 5741 5741 5741 5740 5738 5736 5735 5733 5730 5727 5723 5719 5715 5711 5707 5704 5700 5698 5696
5571 5577 5591 5609 5612 5630 5647 5660 5672 5692 5698 5707 5714 5716 5716 5714 5717 5722 5724 5726 5726 5728 5731 5733 5736 5737 5738 5738 5736 5735 5733 5732 5730 5728 5724 5720 5717 5713 5710 5706 5703 5701 5700 5698
5566 5573 5584 5601 5617 5625 5641 5654 5667 5678 5689 5699 5705 5713 5710 5711 5715 5719 5721 5723 5724 5726 5729 5732 5733 5734 5735 5735 5733 5731 5730 5729 5727 5725 5721 5718 5715 5712 5709 5706 5704 5703 5701 5700
5559 5568 5579 5592 5604 5616 5629 5645 5661 5673 5687 5691 5703 5710 5706 5707 5713 5716 5718 5719 5722 5724 5727 5729 5731 5732 5732 5731 5730 5729 5728 5727 5726 5723 5719 5716 5714 5712 5709 5707 5706 5704 5702 5701
5555 5563 5571 5586 5605 5619 5625 5639 5655 5664 5674 5687 5695 5699 5703 5705 5709 5711 5715 5717 5720 5723 5725 5728 5729 5729 5729 5729 5728 5727 5726 5725 5724 5721 5718 5716 5713 5712 5710 5708 5707 5704 5702 5702
5552 5562 5574 5578 5589 5599 5623 5633 5646 5655 5668 5682 5691 5695 5701 5704 5704 5705 5710 5714 5718 5721 5724 5725 5726 5727 5727 5727 5726 5725 5725 5724 5722 5719 5717 5715 5713 5712 5710 5709 5707 5704 5703 5701
5550 5562 5561 5571 5583 5592 5607 5628 5640 5651 5662 5677 5684 5688 5697 5696 5699 5704 5708 5713 5716 5719 5721 5723 5723 5725 5726 5726 5725 5724 5724 5723 5721 5719 5717 5715 5712 5712 5710 5709 5707 5705 5702 5701
5550 5556 5561 5569 5578 5590 5604 5617 5633 5646 5656 5666 5673 5682 5688 5690 5695 5699 5705 5711 5715 5717 5719 5720 5722 5723 5724 5725 5723 5724 5724 5723 5721 5719 5717 5716 5714 5712 5711 5710 5708 5706 5704 5702
5551 5556 5557 5568 5578 5591 5604 5613 5625 5640 5650 5659 5667 5671 5680 5688 5692 5699 5703 5709 5713 5714 5716 5718 5720 5722 5723 5723 5723 5723 5723 5723 5721 5720 5719 5718 5716 5715 5713 5711 5709 5708 5706 5704
5552 5557 5563 5572 5581 5593 5604 5612 5623 5631 5646 5651 5656 5665 5675 5683 5686 5686 5693 5698 5709 5712 5713 5717 5719 5721 5722 5722 5722 5723 5723 5723 5722 5721 5721 5720 5718 5717 5715 5713 5711 5710 5708 5706
5552 5556 5562 5571 5583 5589 5597 5604 5616 5623 5630 5636 5651 5655 5659 5662 5676 5681 5691 5698 5697 5706 5711 5715 5717 5719 5722 5722 5722 5723 5723 5723 5723 5723 5723 5722 5721 5720 5718 5717 5715 5713 5711 5708
5555 5562 5565 5571 5578 5587 5593 5599 5611 5623 5626 5637 5644 5652 5661 5666 5670 5680 5688 5695 5701 5705 5710 5714 5715 5719 5720 5721 5722 5723 5724 5724 5724 5724 5725 5724 5723 5723 5722 5721 5719 5718 5715 5712
5556 5562 5568 5574 5579 5584 5591 5596 5606 5609 5621 5631 5638 5647 5655 5662 5672 5678 5684 5691 5698 5703 5709 5713 5715 5717 5718 5720 5722 5723 5724 5724 5725 5726 5726 5726 5726 5725 5724 5724 5723 5723 5721 5719
5557 5563 5568 5573 5578 5579 5585 5593 5599 5610 5618 5627 5634 5642 5650 5661 5668 5677 5685 5690 5695 5701 5707 5711 5714 5716 5717 5719 5721 5723 5724 5725 5726 5726 5727 5728 5728 5727 5727 5726 5727 5727 5726 5725
5555 5560 5564 5571 5572 5573 5581 5590 5598 5607 5615 5624 5632 5639 5647 5656 5666 5674 5681 5688 5694 5699 5705 5709 5712 5715 5716 5719 5721 5722 5724 5725 5726 5727 5728 5729 5730 5730 5730 5730 5730 5731 5731 5730
5551 5556 5561 5566 5569 5572 5580 5589 5596 5605 5612 5620 5629 5636 5644 5653 5662 5670 5678 5685 5691 5696 5702 5707 5711 5714 5715 5718 5720 5722 5723 5725 5727 5728 5729 5730 5732 5733 5733 5734 5735 5735 5736 5736
5552 5556 5559 5561 5563 5570 5578 5585 5594 5602 5610 5618 5626 5633 5640 5649 5659 5667 5674 5681 5688 5694 5699 5704 5709 5712 5714 5717 5719 5721 5723 5724 5727 5728 5729 5731 5732 5734 5735 5736 5738 5739 5740 5740
Wind_Speed
66 71 65 53 54 50 53 60 58 51 45 40 44 47 49 51 46 45 46 49 40 39 41 37 28 23 23 21 25 25 27 30 33 33 34 36 39 40 40 38 37 37 38 36
77 72 48 55 54 57 58 59 53 49 49 44 46 51 41 47 45 45 45 44 39 39 40 34 27 24 19 22 22 25 28 32 35 36 37 38 37 36 36 36 36 37 36 35
79 58 62 60 58 61 57 55 49 45 44 46 45 51 49 47 45 45 40 40 44 37 33 28 26 23 19 22 22 24 28 33 36 35 36 35 32 33 33 35 35 31 34 34
71 62 67 67 65 59 54 51 47 46 49 52 38 48 41 44 43 40 32 37 29 30 27 27 26 22 22 22 21 25 29 35 35 34 31 29 28 31 30 32 31 32 30 28
66 65 67 74 60 57 51 45 48 48 52 44 46 50 36 40 41 30 34 24 29 29 25 27 26 21 21 20 24 27 32 36 30 30 27 25 28 27 30 28 28 29 26 24
69 64 67 64 65 64 54 50 48 48 45 50 41 47 42 34 35 36 21 25 28 23 25 24 24 20 20 20 23 31 35 28 27 26 21 24 25 26 23 23 26 23 21 16
68 68 69 66 69 66 62 57 49 49 52 53 41 42 41 31 36 23 28 26 23 21 19 25 20 19 17 20 27 31 29 24 23 19 22 22 23 20 20 23 20 19 16 13
57 60 66 66 72 66 67 64 61 57 53 45 41 46 36 32 23 28 28 21 21 19 23 21 18 16 17 23 27 29 22 21 17 19 20 20 17 18 19 21 17 14 13 12
39 49 56 67 68 71 70 64 55 43 32 33 29 29 32 16 20 26 21 13 18 19 22 17 15 13 19 23 26 23 20 15 16 16 16 14 15 18 19 16 12 11 11 9
35 43 58 58 69 72 68 59 53 54 49 38 26 25 22 16 27 21 15 16 17 18 15 15 13 16 19 22 22 19 17 13 13 14 15 14 15 18 13 9 9 8 9 8
31 41 43 49 58 69 70 54 59 47 42 34 29 24 23 28 26 20 17 14 20 20 14 13 15 16 19 19 20 18 13 12 12 14 16 11 14 7 6 6 8 8 7 6
32 42 33 48 35 62 64 56 53 54 47 33 21 21 18 24 18 21 17 18 19 13 11 11 14 18 18 19 17 14 10 10 10 13 9 10 3 5 6 7 9 7 5 6
40 50 47 50 40 49 48 51 48 49 33 36 27 21 24 24 24 18 24 20 15 12 10 13 15 16 18 15 14 10 8 9 9 10 7 6 2 5 8 9 7 6 5 5
34 54 52 31 35 39 48 49 45 47 41 33 28 22 20 20 20 24 21 21 15 14 13 13 14 17 14 11 9 7 7 7 8 6 4 2 3 2 4 5 7 5 4 3
28 49 50 24 47 46 50 47 47 47 42 33 28 28 15 18 19 23 23 20 17 14 12 13 13 13 12 7 6 5 6 6 5 4 4 4 1 1 1 1 5 6 1 0
26 54 53 30 40 46 46 42 45 40 43 31 22 35 25 21 20 21 23 21 18 15 13 13 12 12 9 5 4 4 5 4 2 3 4 5 4 1 1 0 4 7 6 3
25 44 60 41 19 45 41 46 43 40 44 46 36 36 37 30 29 32 28 22 19 16 15 13 12 12 7 4 2 4 4 1 0 4 4 3 5 5 4 4 4 6 10 7
17 33 63 50 16 30 38 44 42 39 38 41 38 34 32 39 32 28 28 23 23 21 16 14 13 13 8 3 1 3 3 3 3 6 6 5 8 10 9 8 6 4 5 6
18 30 49 49 21 27 26 36 37 35 33 38 34 37 35 41 42 44 38 37 28 26 22 14 13 14 9 3 1 2 3 4 5 6 6 5 8 10 11 10 10 7 5 7
18 32 48 39 23 26 25 28 44 41 42 45 42 46 51 57 49 46 39 39 39 32 25 16 14 15 11 5 3 2 4 5 8 8 8 7 9 10 11 11 11 13 12 11
22 25 29 49 26 26 24 28 36 39 45 41 44 43 46 48 51 43 39 37 35 28 25 17 15 16 13 7 4 2 5 7 8 9 8 8 9 10 10 11 11 15 18 18
18 18 15 28 43 20 29 26 39 50 42 39 43 43 53 52 49 44 42 40 36 31 24 17 15 16 15 10 5 3 5 7 8 8 7 6 7 7 9 10 10 11 17 19
22 21 22 28 44 16 44 31 40 41 39 35 41 42 53 55 51 44 40 39 36 30 25 19 17 16 13 13 9 5 5 6 8 8 7 6 7 9 9 11 12 10 14 18
11 23 21 27 34 41 21 45 30 35 38 32 37 42 53 57 52 45 41 39 35 30 26 22 19 15 12 12 12 8 6 7 8 9 8 8 9 11 12 13 14 15 14 17
15 22 25 30 17 36 41 30 35 34 38 34 36 47 56 57 53 48 43 38 35 30 26 23 21 16 11 13 13 11 8 7 8 9 9 10 11 13 13 13 16 19 20 20
17 20 23 28 23 26 34 41 36 37 32 36 40 48 57 57 52 49 45 41 37 32 29 25 23 20 14 13 14 13 11 9 9 10 11 11 12 13 13 14 13 12 13 12
Wind_Direction
242 241 241 247 253 261 260 259 264 267 274 271 276 267 266 274 273 272 272 273 274 276 283 288 271 268 273 276 277 290 288 284 285 288 284 287 292 295 297 299 300 299 300 298
239 241 249 246 245 247 249 254 257 265 266 258 265 272 265 269 273 273 274 277 279 273 281 282 262 258 273 278 286 287 287 285 289 286 282 285 290 295 295 298 298 299 297 300
240 249 241 242 241 243 245 250 256 266 265 263 263 263 274 276 279 277 272 272 268 282 278 267 257 254 271 276 278 283 283 289 285 282 284 289 291 297 299 299 301 300 302 303
241 239 237 236 237 241 246 251 252 254 255 257 263 274 277 274 275 279 276 265 276 278 261 253 249 256 272 281 275 273 285 293 284 286 289 290 298 301 298 299 303 304 305 304
242 237 235 235 241 236 241 241 248 248 252 259 261 266 274 266 278 284 264 268 266 260 244 251 243 258 278 271 267 277 286 294 285 291 292 298 301 298 302 302 305 308 310 310
237 234 231 237 235 229 231 234 237 245 251 253 262 262 270 278 287 269 257 246 250 242 243 240 242 265 264 263 273 280 291 288 289 292 297 301 297 303 303 304 309 315 318 315
237 227 225 226 227 228 223 226 230 238 245 256 259 260 276 283 281 263 246 250 237 233 232 232 251 258 258 270 276 286 287 290 294 299 302 295 300 305 303 312 315 323 328 321
227 225 221 224 225 229 221 223 228 237 243 258 266 270 284 283 262 241 228 232 231 228 226 233 251 246 263 274 284 287 285 295 298 305 297 296 300 302 310 316 322 332 328 336
227 228 218 213 218 217 220 220 233 227 246 253 254 274 283 273 234 227 223 208 222 223 228 234 239 246 268 279 290 280 290 287 306 302 309 302 301 309 318 315 334 341 340 353
216 217 209 208 213 214 210 224 213 220 228 233 251 256 259 217 212 198 216 221 224 214 212 225 234 252 270 286 280 279 286 289 302 302 313 311 302 317 317 333 355 359 5 40
220 211 206 197 213 211 208 207 215 220 223 233 241 250 264 215 213 205 223 220 222 208 213 223 237 261 274 284 276 279 278 295 296 308 316 311 317 333 354 16 24 19 30 81
212 201 189 204 207 208 208 206 208 211 213 216 228 225 232 209 205 211 210 219 215 202 205 227 250 267 281 277 272 278 272 296 297 313 316 312 331 16 42 45 35 32 47 97
210 193 187 193 195 205 196 204 206 205 205 219 213 219 209 206 205 213 202 217 200 197 222 246 261 275 276 268 276 259 277 293 300 313 319 313 158 63 78 58 46 49 51 90
212 195 190 173 195 199 191 199 202 208 203 210 192 213 208 202 197 211 198 197 190 195 217 241 262 276 265 267 269 261 281 293 293 299 321 317 154 108 113 60 29 26 74 130
213 188 175 174 176 179 204 193 197 204 200 197 208 191 187 179 186 200 197 192 189 200 227 252 269 262 251 264 272 261 276 287 294 291 326 258 90 108 176 11 19 18 349 20
210 185 192 215 176 178 181 196 200 198 197 183 191 188 166 180 214 208 200 193 190 210 230 252 259 252 236 266 282 259 271 297 278 329 323 322 272 284 250 193 41 28 341 301
206 197 205 207 146 177 181 183 190 197 199 190 187 186 192 188 197 200 201 199 203 215 229 247 249 232 221 262 298 253 257 213 8 44 34 43 92 74 69 80 65 40 64 68
201 199 203 207 144 182 189 188 180 197 198 200 201 187 194 197 206 197 206 202 211 222 223 234 241 215 211 246 257 239 230 150 108 71 72 61 70 76 71 72 62 78 51 64
185 190 199 192 174 174 180 200 189 189 193 203 200 200 199 198 199 201 199 186 208 221 221 226 227 207 207 188 176 220 199 139 120 95 82 78 70 71 70 62 59 63 80 72
172 185 201 188 175 171 188 199 204 190 200 203 200 202 194 194 198 204 201 203 194 206 215 213 212 199 197 172 146 197 187 141 124 111 99 91 89 78 76 71 64 67 70 64
179 193 193 211 164 197 186 196 200 198 210 200 205 204 204 202 200 196 199 206 211 210 206 203 202 200 188 173 145 178 192 157 129 119 105 96 88 90 90 85 72 72 71 71
182 189 197 199 206 211 202 212 192 197 199 193 200 198 197 200 201 200 194 202 206 207 206 205 199 200 193 187 183 176 200 174 148 129 109 97 114 107 98 100 94 85 85 81
198 201 190 186 193 201 208 208 207 201 188 193 192 194 197 196 200 201 201 203 205 206 202 198 201 200 192 198 199 191 196 188 175 150 125 103 111 124 116 104 104 102 94 95
152 189 193 187 207 223 190 208 207 197 198 199 188 194 195 194 197 199 203 207 207 209 200 196 204 199 187 198 199 185 191 192 183 165 146 125 120 119 112 108 109 110 103 98
161 183 196 181 209 216 216 201 206 190 193 194 185 189 195 195 197 202 203 206 208 210 206 195 201 197 190 196 195 187 188 191 187 173 160 146 140 134 125 119 115 113 108 101
189 180 189 203 212 205 203 210 203 190 187 187 183 190 195 198 198 203 205 206 210 211 210 202 204 207 201 200 199 199 198 200 197 186 175 168 160 157 144 139 134 127 121 111